When you browse on this site, cookies collect data to enhance your experience and personalize the content and advertising you see.
Visit our Privacy Policy to learn more. By continuing to use the site, you agree to this use of cookies and data.
  • In Hungary
  • List of Countries
  • For 7 days
  • Water Temperature
  • Satellite Maps
  • Weather Map
  • News
  • Weather Widgets
  • user-avatar
    Login

    Hourly Weather Port Said

    Today, 17 November, Saturday

    Time Temperature Precipitation Wind Pressure Humidity
    00:00 +20°C° 0 mm 1 mps 766 mmHg 58%
    01:00 +20°C° 0 mm 1 mps 766 mmHg 59%
    02:00 +20°C° 0 mm 1 mps 766 mmHg 61%
    03:00 +20°C° 0 mm 1 mps 766 mmHg 62%
    04:00 +19°C° 0 mm 1 mps 766 mmHg 63%
    05:00 +19°C° 0 mm 1 mps 766 mmHg 64%
    06:00 +20°C° 0 mm 1 mps 766 mmHg 62%
    07:00 +21°C° 0 mm 1 mps 766 mmHg 60%
    08:00 +22°C° 0 mm 1 mps 766 mmHg 58%
    09:00 +22°C° 0 mm 1 mps 766 mmHg 55%
    10:00 +23°C° 0 mm 1 mps 766 mmHg 52%
    11:00 +24°C° 0 mm 1 mps 766 mmHg 50%
    12:00 +25°C° 0 mm 2 mps 765 mmHg 48%
    13:00 +25°C° 0 mm 2 mps 765 mmHg 46%
    14:00 +26°C° 0 mm 2 mps 765 mmHg 44%
    15:00 +25°C° 0 mm 3 mps 765 mmHg 47%
    16:00 +24°C° 0 mm 3 mps 764 mmHg 49%
    17:00 +24°C° 0 mm 3 mps 764 mmHg 52%
    18:00 +22°C° 0 mm 4 mps 764 mmHg 55%
    19:00 +22°C° 0 mm 4 mps 765 mmHg 58%
    20:00 +22°C° 0 mm 4 mps 765 mmHg 61%
    21:00 +21°C° 0 mm 3 mps 765 mmHg 63%
    22:00 +21°C° 0 mm 3 mps 765 mmHg 64%
    23:00 +21°C° 0 mm 3 mps 765 mmHg 66%

    Tomorrow, 18 November, Sunday

    Time Temperature Precipitation Wind Pressure Humidity
    00:00 +21°C° 0 mm 3 mps 765 mmHg 67%
    01:00 +20°C° 0 mm 3 mps 764 mmHg 68%
    02:00 +20°C° 0 mm 3 mps 764 mmHg 69%
    03:00 +20°C° 0 mm 3 mps 764 mmHg 70%
    04:00 +20°C° 0 mm 2 mps 764 mmHg 71%
    05:00 +20°C° 0 mm 2 mps 764 mmHg 71%
    06:00 +20°C° 0 mm 3 mps 764 mmHg 69%
    07:00 +21°C° 0 mm 3 mps 764 mmHg 66%
    08:00 +22°C° 0 mm 3 mps 764 mmHg 64%
    09:00 +24°C° 0 mm 3 mps 764 mmHg 59%
    10:00 +25°C° 0 mm 3 mps 763 mmHg 54%
    11:00 +26°C° 0 mm 4 mps 763 mmHg 49%
    12:00 +26°C° 0 mm 4 mps 763 mmHg 48%
    13:00 +27°C° 0 mm 4 mps 762 mmHg 47%
    14:00 +27°C° 0 mm 4 mps 762 mmHg 46%
    15:00 +26°C° 0 mm 4 mps 762 mmHg 49%
    16:00 +25°C° 0 mm 4 mps 761 mmHg 53%
    17:00 +25°C° 0 mm 4 mps 761 mmHg 56%
    18:00 +23°C° 0 mm 4 mps 761 mmHg 58%
    19:00 +23°C° 0 mm 4 mps 761 mmHg 60%
    20:00 +24°C° 0 mm 3 mps 761 mmHg 62%
    21:00 +22°C° 0 mm 3 mps 761 mmHg 63%
    22:00 +22°C° 0 mm 3 mps 761 mmHg 64%
    23:00 +22°C° 0 mm 3 mps 761 mmHg 65%

    Day after tomorrow, 19 November, Monday

    Time Temperature Precipitation Wind Pressure Humidity
    00:00 +21°C° 0 mm 2 mps 761 mmHg 67%
    01:00 +22°C° 0 mm 1 mps 761 mmHg 69%
    02:00 +19°C° 0 mm 0 mps 760 mmHg 70%
    03:00 +21°C° 0 mm 1 mps 761 mmHg 71%
    04:00 +21°C° 0 mm 1 mps 761 mmHg 72%
    05:00 +20°C° 0 mm 1 mps 761 mmHg 73%
    06:00 +21°C° 0 mm 1 mps 761 mmHg 71%
    07:00 +21°C° 0 mm 2 mps 761 mmHg 68%
    08:00 +21°C° 0 mm 2 mps 762 mmHg 66%
    09:00 +24°C° 0 mm 2 mps 762 mmHg 60%
    10:00 +25°C° 0 mm 2 mps 762 mmHg 54%
    11:00 +26°C° 0 mm 2 mps 763 mmHg 48%
    12:00 +26°C° 0 mm 2 mps 762 mmHg 46%
    13:00 +27°C° 0 mm 2 mps 762 mmHg 44%
    14:00 +27°C° 0 mm 2 mps 762 mmHg 42%
    15:00 +27°C° 0 mm 3 mps 762 mmHg 47%
    16:00 +26°C° 0 mm 3 mps 762 mmHg 51%
    17:00 +25°C° 0 mm 3 mps 762 mmHg 55%
    18:00 +25°C° 0 mm 3 mps 763 mmHg 58%
    19:00 +24°C° 0 mm 3 mps 763 mmHg 61%
    20:00 +22°C° 0 mm 3 mps 763 mmHg 64%
    21:00 +22°C° 0 mm 3 mps 764 mmHg 65%
    22:00 +22°C° 0 mm 3 mps 764 mmHg 66%
    23:00 +23°C° 0 mm 2 mps 764 mmHg 66%

    20 November, Tuesday

    Time Temperature Precipitation Wind Pressure Humidity
    00:00 +21°C° 0 mm 2 mps 764 mmHg 67%
    01:00 +21°C° 0 mm 2 mps 764 mmHg 69%
    02:00 +21°C° 0 mm 2 mps 764 mmHg 70%
    03:00 +21°C° 0 mm 1 mps 764 mmHg 71%
    04:00 +21°C° 0 mm 1 mps 764 mmHg 73%
    05:00 +21°C° 0 mm 1 mps 764 mmHg 74%
    06:00 +21°C° 0 mm 1 mps 765 mmHg 71%
    07:00 +22°C° 0 mm 1 mps 765 mmHg 67%
    08:00 +23°C° 0 mm 2 mps 765 mmHg 64%
    09:00 +24°C° 0 mm 2 mps 765 mmHg 60%
    10:00 +25°C° 0 mm 2 mps 765 mmHg 55%
    11:00 +26°C° 0 mm 3 mps 765 mmHg 50%
    12:00 +26°C° 0 mm 3 mps 765 mmHg 49%
    13:00 +27°C° 0 mm 3 mps 764 mmHg 47%
    14:00 +27°C° 0 mm 3 mps 764 mmHg 45%
    15:00 +26°C° 0 mm 3 mps 764 mmHg 49%
    16:00 +25°C° 0 mm 3 mps 764 mmHg 53%
    17:00 +24°C° 0 mm 3 mps 764 mmHg 57%
    18:00 +24°C° 0 mm 3 mps 765 mmHg 60%
    19:00 +24°C° 0 mm 3 mps 765 mmHg 62%
    20:00 +22°C° 0 mm 3 mps 766 mmHg 65%
    21:00 +22°C° 0 mm 3 mps 765 mmHg 67%
    22:00 +21°C° 0 mm 3 mps 765 mmHg 68%
    23:00 +21°C° 0 mm 2 mps 765 mmHg 70%

    21 November, Wednesday

    Time Temperature Precipitation Wind Pressure Humidity
    00:00 +21°C° 0 mm 2 mps 765 mmHg 71%
    01:00 +20°C° 0 mm 2 mps 764 mmHg 73%
    02:00 +21°C° 0 mm 1 mps 764 mmHg 74%
    03:00 +21°C° 0 mm 1 mps 764 mmHg 75%
    04:00 +20°C° 0 mm 1 mps 764 mmHg 77%
    05:00 +20°C° 0 mm 1 mps 764 mmHg 78%
    06:00 +21°C° 0 mm 1 mps 764 mmHg 74%
    07:00 +22°C° 0 mm 1 mps 764 mmHg 70%
    08:00 +21°C° 0 mm 2 mps 764 mmHg 66%
    09:00 +23°C° 0 mm 2 mps 764 mmHg 61%
    10:00 +25°C° 0 mm 2 mps 764 mmHg 55%
    11:00 +26°C° 0 mm 2 mps 764 mmHg 49%
    12:00 +26°C° 0 mm 3 mps 764 mmHg 47%
    13:00 +27°C° 0 mm 3 mps 763 mmHg 44%
    14:00 +27°C° 0 mm 3 mps 763 mmHg 42%
    15:00 +26°C° 0 mm 3 mps 763 mmHg 47%
    16:00 +25°C° 0 mm 4 mps 763 mmHg 52%
    17:00 +23°C° 0 mm 4 mps 763 mmHg 56%
    18:00 +24°C° 0 mm 3 mps 763 mmHg 59%
    19:00 +22°C° 0 mm 3 mps 763 mmHg 62%
    20:00 +23°C° 0 mm 2 mps 763 mmHg 64%
    21:00 +23°C° 0 mm 2 mps 763 mmHg 66%
    22:00 +22°C° 0 mm 1 mps 763 mmHg 67%
    23:00 +22°C° 0 mm 1 mps 763 mmHg 68%

    22 November, Thursday

    Time Temperature Precipitation Wind Pressure Humidity
    00:00 +22°C° 0 mm 1 mps 763 mmHg 69%
    01:00 +21°C° 0 mm 1 mps 762 mmHg 70%
    02:00 +21°C° 0 mm 1 mps 762 mmHg 71%
    03:00 +21°C° 0 mm 1 mps 762 mmHg 72%
    04:00 +21°C° 0 mm 1 mps 762 mmHg 73%
    05:00 +18°C° 0 mm 0 mps 762 mmHg 74%
    06:00 +19°C° 0 mm 0 mps 762 mmHg 71%
    07:00 +20°C° 0 mm 0 mps 763 mmHg 68%
    08:00 +20°C° 0 mm 0 mps 763 mmHg 64%
    09:00 +21°C° 0 mm 0 mps 763 mmHg 59%
    10:00 +23°C° 0 mm 0 mps 762 mmHg 53%
    11:00 +24°C° 0 mm 0 mps 762 mmHg 47%
    12:00 +26°C° 0 mm 1 mps 762 mmHg 44%
    13:00 +27°C° 0 mm 2 mps 761 mmHg 40%
    14:00 +28°C° 0 mm 3 mps 761 mmHg 36%
    15:00 +27°C° 0 mm 3 mps 761 mmHg 41%
    16:00 +26°C° 0 mm 4 mps 761 mmHg 46%
    17:00 +25°C° 0 mm 4 mps 761 mmHg 51%
    18:00 +23°C° 0 mm 4 mps 761 mmHg 56%
    19:00 +23°C° 0 mm 4 mps 762 mmHg 61%
    20:00 +22°C° 0 mm 3 mps 762 mmHg 65%
    21:00 +22°C° 0 mm 3 mps 762 mmHg 67%
    22:00 +21°C° 0 mm 3 mps 762 mmHg 69%
    23:00 +21°C° 0 mm 3 mps 762 mmHg 71%
    Show more